Torna al catalogo

STARLINK-32044

AttivoComunicazioniVLEO
NORAD 60092·PAYLOAD·🇺🇸 United States

Lanciato Jun 23, 2024 da Cape Canaveral Space Force Station

Loading…

Prossimi Passaggi (prossime 24 ore)

TLE

AggiornatoSource: CelesTrak SupGP

Epoca: Sep 15, 2026, 02:32 UTC

1 60092C 24117B   26258.10604167 -.00054713  00000+0 -16155-2 0  2589
2 60092  53.1562 234.6651 0000765 104.3430 275.8898 15.34438669    18

Traccia STARLINK-32044 in tempo reale con AllMySat

Download on the App Store